• In Switzerland
  • List of Countries
  • For 7 days
  • Water Temperature
  • Satellite Maps
  • Weather Map
  • Weather Widgets
  • user-avatar
    Login

    Hourly Weather Olishevichi

    Today, 26 September, Wednesday

    Time Temperature Precipitation Wind Pressure Humidity
    00:00 +4°C° 0 mm 4 mps 759 mmHg 78%
    01:00 +4°C° 0 mm 3 mps 759 mmHg 80%
    02:00 +3°C° 0 mm 3 mps 760 mmHg 83%
    03:00 +3°C° 0 mm 3 mps 760 mmHg 85%
    04:00 +2°C° 0 mm 3 mps 760 mmHg 87%
    05:00 +2°C° 0 mm 3 mps 760 mmHg 89%
    06:00 +3°C° 0 mm 3 mps 760 mmHg 84%
    07:00 +4°C° 0 mm 3 mps 761 mmHg 79%
    08:00 +5°C° 0 mm 4 mps 761 mmHg 74%
    09:00 +6°C° 0 mm 4 mps 761 mmHg 66%
    10:00 +8°C° 0 mm 5 mps 760 mmHg 58%
    11:00 +10°C° 0 mm 5 mps 760 mmHg 50%
    12:00 +10°C° 0 mm 6 mps 760 mmHg 50%
    13:00 +11°C° 0 mm 6 mps 759 mmHg 49%
    14:00 +11°C° 0 mm 6 mps 758 mmHg 49%
    15:00 +11°C° 0 mm 6 mps 758 mmHg 52%
    16:00 +10°C° 0 mm 5 mps 757 mmHg 56%
    17:00 +9°C° 0 mm 5 mps 757 mmHg 59%
    18:00 +9°C° 0.3 mm 5 mps 756 mmHg 65%
    19:00 +8°C° 0.3 mm 6 mps 756 mmHg 71%
    20:00 +7°C° 0.3 mm 6 mps 755 mmHg 77%
    21:00 +7°C° 0.4 mm 6 mps 755 mmHg 79%
    22:00 +6°C° 0.4 mm 7 mps 754 mmHg 81%
    23:00 +6°C° 0.4 mm 7 mps 754 mmHg 82%

    Tomorrow, 27 September, Thursday

    Time Temperature Precipitation Wind Pressure Humidity
    00:00 +6°C° 0.9 mm 7 mps 753 mmHg 82%
    01:00 +6°C° 0.9 mm 7 mps 753 mmHg 81%
    02:00 +8°C° 0.9 mm 7 mps 752 mmHg 81%
    03:00 +8°C° 0.2 mm 7 mps 751 mmHg 80%
    04:00 +8°C° 0.2 mm 7 mps 751 mmHg 79%
    05:00 +8°C° 0.2 mm 7 mps 750 mmHg 78%
    06:00 +9°C° 0.1 mm 7 mps 750 mmHg 79%
    07:00 +9°C° 0.1 mm 7 mps 750 mmHg 79%
    08:00 +9°C° 0.1 mm 7 mps 750 mmHg 79%
    09:00 +10°C° 0.1 mm 7 mps 750 mmHg 80%
    10:00 +10°C° 0.1 mm 7 mps 750 mmHg 82%
    11:00 +11°C° 0.1 mm 7 mps 751 mmHg 83%
    12:00 +11°C° 0.1 mm 7 mps 751 mmHg 83%
    13:00 +13°C° 0.1 mm 6 mps 751 mmHg 83%
    14:00 +14°C° 0.1 mm 6 mps 751 mmHg 84%
    15:00 +14°C° 0 mm 6 mps 751 mmHg 83%
    16:00 +15°C° 0 mm 5 mps 751 mmHg 82%
    17:00 +15°C° 0 mm 5 mps 751 mmHg 82%
    18:00 +14°C° 0 mm 5 mps 750 mmHg 85%
    19:00 +14°C° 0 mm 4 mps 750 mmHg 88%
    20:00 +13°C° 0 mm 4 mps 750 mmHg 91%
    21:00 +13°C° 0 mm 4 mps 750 mmHg 91%
    22:00 +13°C° 0 mm 4 mps 750 mmHg 91%
    23:00 +13°C° 0 mm 4 mps 750 mmHg 91%

    Day after tomorrow, 28 September, Friday

    Time Temperature Precipitation Wind Pressure Humidity
    00:00 +13°C° 0 mm 5 mps 749 mmHg 91%
    01:00 +12°C° 0 mm 5 mps 749 mmHg 92%
    02:00 +12°C° 0 mm 5 mps 748 mmHg 92%
    03:00 +12°C° 0 mm 5 mps 747 mmHg 92%
    04:00 +12°C° 0 mm 5 mps 747 mmHg 92%
    05:00 +11°C° 0 mm 6 mps 746 mmHg 92%
    06:00 +11°C° 0 mm 6 mps 746 mmHg 89%
    07:00 +13°C° 0 mm 6 mps 746 mmHg 86%
    08:00 +13°C° 0 mm 6 mps 745 mmHg 82%
    09:00 +14°C° 0.2 mm 6 mps 745 mmHg 81%
    10:00 +14°C° 0.2 mm 6 mps 745 mmHg 79%
    11:00 +15°C° 0.2 mm 6 mps 745 mmHg 78%
    12:00 +14°C° 0.4 mm 5 mps 746 mmHg 80%
    13:00 +14°C° 0.4 mm 5 mps 746 mmHg 82%
    14:00 +13°C° 0.4 mm 4 mps 746 mmHg 85%
    15:00 +13°C° 0.2 mm 4 mps 746 mmHg 83%
    16:00 +13°C° 0.2 mm 3 mps 746 mmHg 82%
    17:00 +12°C° 0.2 mm 3 mps 746 mmHg 81%
    18:00 +11°C° 0 mm 3 mps 747 mmHg 82%
    19:00 +10°C° 0 mm 3 mps 747 mmHg 82%
    20:00 +9°C° 0 mm 2 mps 747 mmHg 83%
    21:00 +9°C° 0 mm 2 mps 748 mmHg 84%
    22:00 +8°C° 0 mm 2 mps 748 mmHg 84%
    23:00 +8°C° 0 mm 2 mps 748 mmHg 85%

    29 September, Saturday

    Time Temperature Precipitation Wind Pressure Humidity
    00:00 +7°C° 0 mm 2 mps 749 mmHg 86%
    01:00 +7°C° 0 mm 2 mps 749 mmHg 87%
    02:00 +7°C° 0 mm 2 mps 749 mmHg 88%
    03:00 +7°C° 0 mm 2 mps 749 mmHg 89%
    04:00 +7°C° 0 mm 2 mps 750 mmHg 90%
    05:00 +7°C° 0 mm 2 mps 750 mmHg 91%
    06:00 +7°C° 0 mm 2 mps 750 mmHg 90%
    07:00 +7°C° 0 mm 2 mps 751 mmHg 89%
    08:00 +8°C° 0 mm 2 mps 751 mmHg 88%
    09:00 +9°C° 0 mm 3 mps 751 mmHg 82%
    10:00 +10°C° 0 mm 3 mps 752 mmHg 76%
    11:00 +11°C° 0 mm 3 mps 752 mmHg 71%
    12:00 +12°C° 0.1 mm 3 mps 752 mmHg 67%
    13:00 +12°C° 0.1 mm 3 mps 753 mmHg 63%
    14:00 +13°C° 0.1 mm 4 mps 753 mmHg 60%
    15:00 +12°C° 0 mm 3 mps 753 mmHg 62%
    16:00 +12°C° 0 mm 3 mps 753 mmHg 64%
    17:00 +11°C° 0 mm 3 mps 753 mmHg 66%
    18:00 +10°C° 0 mm 3 mps 754 mmHg 71%
    19:00 +9°C° 0 mm 3 mps 754 mmHg 75%
    20:00 +7°C° 0 mm 2 mps 755 mmHg 80%
    21:00 +7°C° 0 mm 2 mps 755 mmHg 81%
    22:00 +6°C° 0 mm 2 mps 755 mmHg 82%
    23:00 +6°C° 0 mm 2 mps 756 mmHg 83%

    30 September, Sunday

    Time Temperature Precipitation Wind Pressure Humidity
    00:00 +5°C° 0 mm 2 mps 756 mmHg 84%
    01:00 +5°C° 0 mm 2 mps 756 mmHg 85%
    02:00 +5°C° 0 mm 2 mps 756 mmHg 86%
    03:00 +5°C° 0 mm 2 mps 756 mmHg 88%
    04:00 +4°C° 0 mm 2 mps 756 mmHg 89%
    05:00 +4°C° 0 mm 2 mps 756 mmHg 91%
    06:00 +6°C° 0 mm 1 mps 756 mmHg 89%
    07:00 +6°C° 0 mm 1 mps 756 mmHg 87%
    08:00 +7°C° 0 mm 1 mps 756 mmHg 85%
    09:00 +8°C° 0 mm 2 mps 756 mmHg 79%
    10:00 +10°C° 0 mm 2 mps 756 mmHg 72%
    11:00 +13°C° 0 mm 2 mps 756 mmHg 65%
    12:00 +14°C° 0 mm 2 mps 755 mmHg 62%
    13:00 +14°C° 0 mm 2 mps 755 mmHg 58%
    14:00 +15°C° 0 mm 2 mps 754 mmHg 55%
    15:00 +15°C° 0 mm 1 mps 754 mmHg 57%
    16:00 +14°C° 0 mm 1 mps 753 mmHg 60%
    17:00 +14°C° 0 mm 1 mps 753 mmHg 63%
    18:00 +13°C° 0 mm 1 mps 753 mmHg 66%
    19:00 +12°C° 0 mm 1 mps 753 mmHg 70%
    20:00 +10°C° 0 mm 1 mps 753 mmHg 73%
    21:00 +10°C° 0 mm 1 mps 752 mmHg 74%
    22:00 +10°C° 0 mm 1 mps 752 mmHg 75%
    23:00 +10°C° 0 mm 1 mps 752 mmHg 76%

    1 October, Monday

    Time Temperature Precipitation Wind Pressure Humidity
    00:00 +10°C° 0 mm 1 mps 752 mmHg 76%
    01:00 +10°C° 0 mm 1 mps 752 mmHg 76%
    02:00 +10°C° 0 mm 1 mps 751 mmHg 76%
    03:00 +10°C° 0 mm 1 mps 751 mmHg 77%
    04:00 +10°C° 0 mm 1 mps 751 mmHg 78%
    05:00 +10°C° 0 mm 1 mps 750 mmHg 79%
    06:00 +11°C° 0 mm 1 mps 750 mmHg 80%
    07:00 +11°C° 0 mm 1 mps 750 mmHg 81%
    08:00 +11°C° 0 mm 1 mps 750 mmHg 82%
    09:00 +12°C° 0 mm 1 mps 749 mmHg 80%
    10:00 +13°C° 0 mm 1 mps 749 mmHg 77%
    11:00 +14°C° 0 mm 2 mps 749 mmHg 74%
    12:00 +15°C° 0 mm 1 mps 749 mmHg 73%
    13:00 +15°C° 0 mm 1 mps 748 mmHg 72%
    14:00 +16°C° 0 mm 1 mps 748 mmHg 72%
    15:00 +16°C° 0.1 mm 1 mps 747 mmHg 74%
    16:00 +15°C° 0.1 mm 1 mps 747 mmHg 77%
    17:00 +15°C° 0.1 mm 1 mps 747 mmHg 80%
    18:00 +14°C° 0.1 mm 1 mps 747 mmHg 84%
    19:00 +13°C° 0.1 mm 1 mps 747 mmHg 87%
    20:00 +12°C° 0.1 mm 1 mps 747 mmHg 91%
    21:00 +11°C° 0 mm 1 mps 747 mmHg 91%
    22:00 +10°C° 0 mm 2 mps 747 mmHg 92%
    23:00 +10°C° 0 mm 2 mps 747 mmHg 92%
    Show more